Weather History for KGGW - March, 2013

Change the Weather History Date:

Sunday, March 17, 2013

  Actual Average Record
Temperature  
Mean Temperature 16 °F 32 °F  
Max Temperature 27 °F 43 °F 67 °F (1926)
Min Temperature 4 °F 21 °F -13 °F (1965)
Degree Days  
Heating Degree Days 49 33  
Month to date heating degree days 664 625  
Since 1 July heating degree days 6871 6995  
Cooling Degree Days 0 0  
Month to date cooling degree days 0 0  
Year to date cooling degree days 0 0  
Moisture  
Dew Point 14 °F    
Average Humidity 81    
Maximum Humidity 92    
Minimum Humidity 69    
Precipitation  
Precipitation 0.48 in 0.01 in 0.48 in (2013)
Month to date precipitation 0.80 0.20  
Year to date precipitation 1.46 0.83  
Snow  
Snow 5.30 in 0.10 in 5.30 in (2013)
Month to date snowfall 10.6 2.8  
Since 1 July snowfall 47.9 29.8  
Snow Depth T in    
Sea Level Pressure  
Sea Level Pressure 29.67 in    
Wind  
Wind Speed 21 mph (NNW)    
Max Wind Speed 39 mph    
Max Gust Speed 47 mph    
Visibility 4 miles    
Events Fog , Snow    
T = Trace of Precipitation, MM = Missing Value Source: NWS Daily Summary

Daily Weather History Graph

Daily Weather History Graph

Search for Another Location

Airport or City:

Trip Planner

Search our weather history database for the weather conditions in past years. The results will help you decide how hot, cold, wet, or windy it might be!

Date:

Astronomy

Mar. 17, 2013 Rise Set
Actual Time 7:14 AM MDT 7:15 PM MDT
Civil Twilight 6:43 AM MDT 7:46 PM MDT
Nautical Twilight 6:07 AM MDT 8:22 PM MDT
Astronomical Twilight 5:30 AM MDT 9:00 PM MDT
Moon 10:04 AM MDT (3/17) 12:50 AM MDT (3/17)
Length of Visible Light 13h 02m
Length of Day
12h 00m
Waxing Crescent, 32% of the Moon is Illuminated
Mar 17
Waxing Crescent
Mar 19
First Quarter
Mar 27
Full
Apr 2
Last Quarter
Apr 10
New

Hourly Weather History & Observations

Time (MDT) Temp. Windchill Dew Point Humidity Pressure Visibility Wind Dir Wind Speed Gust Speed Precip Events Conditions
12:35 AM 15.8 °F -0.6 °F 12.2 °F 86% 29.77 in 10.0 mi ESE 18.4 mph - N/A   Overcast
12:53 AM 16.0 °F -0.4 °F 12.9 °F 88% 29.86 in 10.0 mi ESE 18.4 mph - N/A   Overcast
1:53 AM 18.0 °F 2.6 °F 14.0 °F 84% 29.82 in 10.0 mi ESE 17.3 mph - 0.00 in   Overcast
2:01 AM 17.6 °F 2.7 °F 15.8 °F 93% 29.69 in 10.0 mi ESE 16.1 mph - N/A   Overcast
2:53 AM 19.9 °F 4.8 °F 17.1 °F 89% 29.76 in 10.0 mi East 18.4 mph - N/A   Overcast
3:23 AM 21.2 °F 6.8 °F 17.6 °F 86% 29.62 in 10.0 mi ESE 17.3 mph - N/A   Overcast
3:53 AM 21.0 °F 6.2 °F 17.1 °F 85% 29.72 in 8.0 mi ESE 18.4 mph - N/A   Overcast
4:01 AM 19.4 °F 2.8 °F 17.6 °F 93% 29.59 in 7.0 mi East 21.9 mph - N/A   Overcast
4:32 AM 19.4 °F 4.1 °F 17.6 °F 93% 29.57 in 6.0 mi ESE 18.4 mph - N/A   Overcast
4:53 AM 19.9 °F 3.9 °F 16.0 °F 85% 29.68 in 7.0 mi ESE 20.7 mph 26.5 mph N/A   Overcast
5:53 AM 21.0 °F 5.7 °F 17.1 °F 85% 29.65 in 9.0 mi ESE 19.6 mph - N/A   Overcast
6:36 AM 21.2 °F 6.8 °F 17.6 °F 86% 29.52 in 8.0 mi ESE 17.3 mph 23.0 mph 0.00 in   Overcast
6:46 AM 21.2 °F 6.8 °F 17.6 °F 86% 29.51 in 7.0 mi ESE 17.3 mph - 0.00 in Snow Light Snow
6:53 AM 21.9 °F 8.2 °F 19.0 °F 89% 29.62 in 5.0 mi East 16.1 mph - 0.00 in Snow Light Snow
7:08 AM 21.2 °F 7.8 °F 19.4 °F 93% 29.51 in 1.8 mi ESE 15.0 mph - 0.01 in Snow Light Snow
7:17 AM 21.2 °F 8.9 °F 19.4 °F 93% 29.50 in 0.8 mi East 12.7 mph - 0.02 in Snow Light Snow
7:53 AM 23.0 °F 11.7 °F 19.9 °F 88% 29.60 in 0.5 mi East 11.5 mph - 0.08 in Fog , Snow Snow
8:18 AM 23.0 °F 11.1 °F 21.2 °F 93% 29.47 in 0.2 mi East 12.7 mph - 0.03 in Fog , Snow Snow
8:36 AM 24.8 °F 12.9 °F 21.2 °F 86% 29.46 in 0.5 mi East 13.8 mph - 0.06 in Fog , Snow Snow
8:53 AM 24.1 °F 11.0 °F 21.9 °F 91% 29.56 in 0.5 mi ESE 16.1 mph - 0.09 in Fog , Snow Snow
9:00 AM 24.8 °F 12.4 °F 21.2 °F 86% 29.45 in 0.2 mi ESE 15.0 mph - 0.01 in Fog , Snow Snow
9:53 AM 25.0 °F 16.3 °F 23.0 °F 92% 29.56 in 0.2 mi East 8.1 mph - 0.11 in Fog , Snow Snow
10:53 AM 26.1 °F 17.6 °F 23.0 °F 88% 29.58 in 0.2 mi WNW 8.1 mph - 0.07 in Fog , Snow Snow
11:10 AM 26.6 °F 16.8 °F 23.0 °F 86% 29.48 in 0.2 mi NW 10.4 mph - 0.02 in Fog , Snow Snow
11:35 AM 26.6 °F 14.3 °F 23.0 °F 86% 29.48 in 0.2 mi NW 16.1 mph - 0.04 in Fog , Snow Snow
11:50 AM 24.8 °F 11.9 °F 21.2 °F 86% 29.48 in 0.5 mi NW 16.1 mph - 0.05 in Fog , Snow Snow
11:53 AM 25.0 °F 12.6 °F 21.9 °F 88% 29.59 in 0.5 mi NW 15.0 mph - 0.05 in Fog , Snow Snow
12:22 PM 24.8 °F 11.5 °F 23.0 °F 93% 29.50 in 0.2 mi NW 17.3 mph - 0.02 in Fog , Snow Snow
12:40 PM 24.8 °F 10.7 °F 23.0 °F 93% 29.50 in 0.2 mi NW 19.6 mph 25.3 mph 0.04 in Fog , Snow Snow
12:53 PM 26.1 °F 13.6 °F 23.0 °F 88% 29.62 in 0.2 mi NW 16.1 mph - 0.05 in Fog , Snow Snow
1:07 PM 26.6 °F 12.4 °F 23.0 °F 86% 29.52 in 0.5 mi NW 21.9 mph 27.6 mph 0.01 in Fog , Snow Light Snow
1:19 PM 26.6 °F 12.4 °F 23.0 °F 86% 29.53 in 1.2 mi NW 21.9 mph 31.1 mph 0.01 in Snow Light Snow
1:21 PM 26.6 °F 12.4 °F 23.0 °F 86% 29.53 in 1.5 mi NW 21.9 mph 31.1 mph 0.01 in Snow Light Snow
1:30 PM 26.6 °F 12.0 °F 21.2 °F 80% 29.54 in 3.0 mi NW 23.0 mph 31.1 mph 0.01 in Snow Light Snow
1:38 PM 26.6 °F 10.3 °F 19.4 °F 74% 29.54 in 1.8 mi WNW 29.9 mph 38.0 mph 0.01 in Snow Light Snow
1:46 PM 24.8 °F 7.3 °F 19.4 °F 80% 29.55 in 0.8 mi NW 32.2 mph 39.1 mph 0.01 in Snow Light Snow
1:53 PM 23.0 °F 5.1 °F 18.0 °F 81% 29.66 in 0.8 mi NW 31.1 mph 40.3 mph 0.01 in Snow Light Snow
2:00 PM 23.0 °F 6.0 °F 17.6 °F 80% 29.56 in 1.0 mi NW 27.6 mph 40.3 mph 0.00 in Snow Light Snow
2:14 PM 21.2 °F 2.7 °F 17.6 °F 86% 29.57 in 0.8 mi NW 31.1 mph 41.4 mph 0.00 in Snow Light Snow
2:22 PM 21.2 °F 1.4 °F 15.8 °F 80% 29.58 in 0.5 mi NW 36.8 mph 42.6 mph 0.00 in Snow Snow
2:30 PM 19.4 °F -0.3 °F 15.8 °F 86% 29.58 in 0.2 mi NW 33.4 mph 47.2 mph 0.00 in Fog , Snow Light Snow
2:53 PM 18.0 °F -2.8 °F 12.9 °F 81% 29.72 in 0.2 mi NW 35.7 mph 43.7 mph 0.00 in Snow Heavy Snow
3:12 PM 15.8 °F -5.5 °F 10.4 °F 79% 29.62 in 0.5 mi NW 34.5 mph 43.7 mph 0.00 in Snow Snow
3:34 PM 15.8 °F -5.0 °F 10.4 °F 79% 29.64 in 1.2 mi NNW 32.2 mph 40.3 mph 0.00 in Snow Blowing Snow
3:53 PM 15.1 °F -6.2 °F 9.0 °F 77% 29.78 in 1.0 mi NW 33.4 mph 44.9 mph 0.00 in Snow Blowing Snow
4:11 PM 14.0 °F -6.2 °F 8.6 °F 79% 29.67 in 1.8 mi NW 27.6 mph 41.4 mph 0.00 in Snow Light Snow
4:20 PM 14.0 °F -6.8 °F 8.6 °F 79% 29.68 in 2.0 mi NW 29.9 mph 39.1 mph 0.00 in Snow Blowing Snow
4:28 PM 12.2 °F -9.3 °F 6.8 °F 79% 29.69 in 2.0 mi NNW 29.9 mph 39.1 mph 0.00 in Snow Blowing Snow
4:49 PM 12.2 °F -9.6 °F 6.8 °F 79% 29.71 in 5.0 mi NW 31.1 mph 39.1 mph 0.00 in Snow Blowing Snow
4:53 PM 12.9 °F -8.3 °F 6.1 °F 74% 29.84 in 4.0 mi NW 29.9 mph 39.1 mph 0.00 in Snow Blowing Snow
5:53 PM 10.9 °F -8.8 °F 3.9 °F 73% 29.90 in 8.0 mi NW 23.0 mph 32.2 mph 0.00 in   Overcast
6:53 PM 9.0 °F -12.2 °F 1.9 °F 73% 29.94 in 10.0 mi NW 25.3 mph 32.2 mph N/A   Mostly Cloudy
7:42 PM 8.6 °F -12.3 °F -0.4 °F 67% 29.84 in 10.0 mi NW 24.2 mph 29.9 mph N/A   Partly Cloudy
7:53 PM 8.1 °F -13.4 °F -0.0 °F 70% 29.97 in 10.0 mi NW 25.3 mph 32.2 mph N/A   Clear
8:53 PM 6.1 °F -14.8 °F -2.9 °F 67% 30.00 in 10.0 mi NW 21.9 mph 28.8 mph N/A   Clear
9:26 PM 5.0 °F -15.2 °F -2.2 °F 72% 29.88 in 10.0 mi NW 19.6 mph 27.6 mph N/A   Mostly Cloudy
9:53 PM 3.9 °F -17.6 °F -2.9 °F 73% 30.03 in 10.0 mi NW 21.9 mph 28.8 mph N/A   Mostly Cloudy
10:53 PM 6.1 °F -14.8 °F -0.9 °F 73% 30.05 in 9.0 mi WNW 21.9 mph 29.9 mph N/A   Overcast
11:53 PM 6.1 °F -13.8 °F -0.9 °F 73% 30.06 in 10.0 mi NW 19.6 mph 26.5 mph N/A   Mostly Cloudy